星链-32820 (STARLINK-32820)

导读

STARLINK-32820是由美国(US)于2025年2月18日发射的星链卫星,隶属于SpaceX公司的星链项目。星链项目旨在构建全球卫星互联网星座,为全球各地尤其是偏远地区提供高速宽带互联网接入服务,该卫星的成功发射进一步扩充了星链星座的在轨卫星规模,推进了全球卫星互联网络的组网进程。

基本信息
目录编号:
63041
目录名称:
STARLINK-32820
国际标识:
2025-034N
轨道中心:
EARTH
卫星名称:
星链-32820
卫星全名:
星链-32820 (STARLINK-32820)
卫星状态:
在轨 (已飞行573 天)
发射日期:
2025-02-18 UTC
国别 :
美国 (US)
星等 :
--
该卫星已列入 空间交会检测服务 Space Conjunction Data Service (SCDS) ,当前飞行风险评估等级: 无高风险
轨道信息
数据来源 国际轨道数据
星历时间: 2026-09-14T21:05:53+0800
10小时前
查看轨道信息
半长轴: 6848.834km
偏心率: 0.0001274
轨道倾角: 53.160°
近地点辐角 86.568°
升交点赤经 100.757°
平近点角 273.547°
近地点: 469.824km
远地点: 471.57km
周期: 94.012分钟
每日圈数: 15.317147
详细信息
固有亮度:
5
最大亮度:
2.5
卫星平台:
Starlink V1.0
覆盖范围:
全球
运营商:
太空探索技术公司
运营商所在国:
美国
制造商(研发单位):
太空探索技术公司
制造商所在国:
美国
使用方式:
暂无
卫星简介
Starlink 计划是 SpaceX 推出的全球卫星互联网项目,通过发射低轨道卫星,为全球尤其是偏远地区提供高速、低延迟的互联网服务。自 2019 年起,Starlink 已部署数千颗卫星,旨在缩小全球数字鸿沟,推动互联网普及。该项目还为军事、航空等行业提供通信支持,带来广泛经济效益。
2D轨道图
3D轨道图
轨道高度分析图
轨道倾角分析图
轨道综合分析图
查看轨道综合分析图
交会数据列表
事件ID 空间交会对象 最接近时刻(TCA) 交会距离 交会风险概率(CRP) 交会风险指数(CRI) 操作
CDM_260914-183601-942906-304122
2026-09-14T
18:36:42+0000
1.305 km
极远距离
8.204512E-6 低风险 0.53
CDM_260915-044900-346206-304121
2026-09-15T
04:49:46+0000
2.335 km
极远距离
7.971754E-7 极低风险 0.33
与全量物体交会距离演化趋势 订阅飞行安全评估服务
与全量物体交会风险概率演化趋势 订阅飞行安全评估服务